Regional Weather Roundup
Issued by NWS Albany, NY

Home | Current Version | Previous Version | Text Only | Print | Product List | Glossary On
Versions: 1 2 3 4 5 6 7 8 9 10 11 12 13 14 15 16 17 18 19 20 21 22 23 24 25 26 27
000
ASUS41 KALY 281110
RWRALY

NEW YORK STATE HOURLY WEATHER ROUNDUP
NATIONAL WEATHER SERVICE ALBANY NY
700 AM EDT TUE MAR 28 2017

NOTE: "FAIR" INDICATES FEW OR NO CLOUDS BELOW 12,000 FEET WITH NO
SIGNIFICANT WEATHER AND/OR NO OBSTRUCTIONS TO VISIBILITY.

NYZ032-033-038>043-046>054-057>066-NYZ062>081-082-084-281200-
EAST


CITY           SKY/WX    TMP DP  RH WIND       PRES   REMARKS
ALBANY         CLOUDY    39  36  89 CALM      29.94R FOG
GLENS FALLS    CLOUDY    36  35  96 CALM      29.93S FOG
POUGHKEEPSIE   CLOUDY    39  39 100 CALM      29.94R FOG
NEWBURGH       LGT RAIN  43  43 100 SE6       29.94S VSB 1/2
MONTGOMERY     CLOUDY    42  41  96 CALM      29.93R FOG
WHITE PLAINS   FOG       40  39  97 E9        29.94S VSB 3/4 WCI  34
ISLIP          CLOUDY    43  43 100 E5        29.97S FOG
NEW YORK CITY  CLOUDY    43  39  86 NE9       29.95S FOG
CENTRAL PARK   CLOUDY    42  41  96 E6        29.98R
$$

NYZ005>009-017-018-044>046-055-056-281200-
CENTRAL


CITY           SKY/WX    TMP DP  RH WIND       PRES   REMARKS
FULTON         CLOUDY    41  40  96 CALM      29.88R
SYRACUSE       CLOUDY    40  39  97 CALM      29.88R
ROME           CLOUDY    38  38 100 E5        29.91R WCI  34
ELMIRA         FOG       46  44  93 CALM      29.87S VSB 1
BINGHAMTON     CLOUDY    42  42 100 SE3       29.87R FOG
MONTICELLO     CLOUDY    43  43 100 E5        29.92S
$$

NYZ026>034-041>043-087-281200-
NORTH


CITY           SKY/WX    TMP DP  RH WIND       PRES   REMARKS
WATERTOWN      CLOUDY    43  43 100 CALM      29.88R FOG
FORT DRUM      NOT AVBL
MASSENA        CLOUDY    35  35 100 CALM      29.89R FOG
SARANAC LAKE   FOG       36  36 100 SW6       29.86S VSB 1/4 WCI  31
PLATTSBURGH    CLOUDY    36  35  96 S3        29.89S
$$

NYZ001>004-010>016-019>021-085-281200-
WEST


CITY           SKY/WX    TMP DP  RH WIND       PRES   REMARKS
NIAGARA FALLS  CLOUDY    50  45  83 N6        29.89R
BUFFALO        CLOUDY    48  45  87 CALM      29.89R
DUNKIRK        CLOUDY    43  42  97 SE5       29.90R
JAMESTOWN      CLOUDY    46  43  87 N10       29.87S
WELLSVILLE     CLOUDY    48  46  93 CALM      29.87S FOG
ROCHESTER      CLOUDY    49  46  90 W3        29.88S
PENN YAN       FOG       45  42  89 SW5       29.88R VSB 3/4
$$

             KEY
       WCI = WIND CHILL INDEX
       VSB = VISIBILITY
       HX  = HEAT INDEX
$$




USA.gov is the U.S. government's official web portal to all federal, state and local government web resources and services.